STARLINK-36092 (66869 NORAD) Tracking and Keplerian Element Data

This shows tracking and keplerian element data for the satellite.

Feedback or suggestion? Click here.




ElementValue
Catalog66869
NameSTARLINK-36092
Epoch Orbit263
Epoch Day354.25003472
Epoch Year2025
RAAN76.2902
Inclination43.001
Eccentricity8.48E-05
Argument of Perigee267.8696
Mean Anonmoly258.593
Mean Motion15.75425464
Decay Rate-0.01728293
L11 66869U 25281X 25354.25003472 -.01728293 00000+0 -12547-1 0 9998
L22 66869 43.0010 76.2902 0000848 267.8696 258.5930 15.75425464 2631



Live tracking and technical data element details for STARLINK-36092 (NORAD 66869). STARLINK-36092 can be tracked NOW for your location showing map with azimuth and elevation plus other details from your city location.







IsCatalogInMostPopularTable: catalog: 66869, numindb: 18
Update: records affected: 1



GetName: 66869 STARLINK-36092

Hit Count: updated at: Sat, 11 Apr 2026 21:33:06 GMT